COSMOS 831

Satellite information

Favourite Embed

Satellite Type and Status

PAYLOADIN ORBIT

Key statistics

Satellite COSMOS 831 at a glance.

Uptime

18084

Days in orbit

Revolutions

≈ 12.4

Per day

Orbit

LEO

Low Earth Orbit

Inclination

74.0

Latest

Satellite identification and parameters

Extended collection of information and parameters for COSMOS 831.

Object identification

Identified? True

Debris? False

Object name: COSMOS 831

International designator: 1976-054G

Object number (NORAD): 8895

Object ID (CCSDS): 8895

Country: COMMONWEALTH OF INDEPENDENT STATES (CIS)

Current information (Y/N): Y

RCS size: MEDIUM

Orbital parameters

Period: 115.779 minutes

Inclination: 74.0013 deg

SMA: 7868.906 km

Apoapsis: 1506.662 km

Periapsis: 1474.88 km

RAAN: 84.3826 deg

Eccentricy: 0.00201947

Argument of periapsis: 38.3458 deg

Mean anomaly: 130.3455 deg

Mean motion: 12.43744663 rev/day

Mean motion (dot): -0.00000026 rev/day2

B* drag term: -0.000072183656 1/REarth

Two-line elements (TLE)

Creation date: Dec. 19, 2025, 2:08 a.m.

Reference frame: TEME

Reference center: EARTH

Epoch: Dec. 18, 2025, 4:36 p.m. UTC

TLE line 0: 0 COSMOS 831

TLE line 1: 1 08895U 76054G 25352.69233289 -.00000026 00000-0 -72184-4 0 9997

TLE line 2: 2 08895 74.0013 84.3826 0020195 38.3458 130.3455 12.43744663247853

Live tracking on map

Real-time ground track for satellite COSMOS 831.

In-orbit conjunctions

A list of the most updated potential collisions computed for object COSMOS 831.

Target Orbit TCA Probability of collision Miss distance Type
COSMOS 374 DEB LEO 2025-01-11 11:01:13 0.0002871067 134.0 (m) DEBRIS

Associated space launch

Military communications satellites

COSMOS 831 was lifted into orbit during the mission ‘Kosmos-3M | Strela-1M 113-120’, on board a Kosmos-3M space rocket.

The launch took place on June 15, 1976, 1:19 p.m. from 132/2.

For more information about the launch, click the button.

Launch to space Kosmos-3M | Strela-1M 113-120
Kosmos-3M | Strela-1M 113-120

Agency: N/A

Status: Launch Successful

Launch date: June 15, 1976, 1:19 p.m. UTC

Rocket: Kosmos-3M

Launch pad: 132/2

Location: Plesetsk Cosmodrome, Russian Federation

...

Latest news about this satellite

There are no fresh news available about this satellite. Check back as we update our databases every day.


Newsletter sign-up

Weekly statistics, charts and insights to help you stay on top of the space industry.